Location: Silverdale
(47.6506°N, 122.6941°W)
Time: 13:59:00
(UTC+00:00)

Vanguard 2 - Visible Passes

Search period start: 03 October 2022 00:00
Search period end: 13 October 2022 00:00
Orbit: 552 x 2935 km, 32.9° (Epoch: 02 October)

Date Brightness Start Highest point End Pass type
(mag) Time Alt. Az. Time Alt. Az. Time Alt. Az.
03 Oct 11.6 03:12:37 10° W 03:25:16 25° SW 03:37:26 10° S visible
04 Oct 11.7 03:30:55 10° W 03:41:50 20° SW 03:52:28 10° S visible
05 Oct 11.8 03:50:07 10° WSW 03:58:20 15° SW 04:06:26 10° SSW visible
06 Oct 11.7 01:53:06 10° W 02:05:43 29° SSW 02:19:20 10° SSE visible
06 Oct 12.0 04:13:10 10° SW 04:14:48 10° SW 04:16:27 10° SW visible
07 Oct 11.8 02:11:02 10° WSW 02:22:27 24° SW 02:34:41 10° S visible
08 Oct 11.9 02:29:30 10° WSW 02:39:08 18° SW 02:49:20 10° S visible
09 Oct 12.1 02:49:15 10° WSW 02:55:47 13° SW 03:02:35 10° SSW visible
